owner,sensor,date,latitude,longitude,vertical_datum,wind_speed,wind_to_direction,wind_speed_of_gust,qcFlag 
COMPS,ioos:station:USF.COMPS:FHP:1,2019-08-01T00:54:00,28.1530,-82.8010,10.0,6.21,122.83,6.85,'11111222,11111222,11111222' 
COMPS,ioos:station:USF.COMPS:FHP:1,2019-08-01T01:54:00,28.1530,-82.8010,10.0,4.96,133.45,6.76,'11111222,11111222,11111222' 
COMPS,ioos:station:USF.COMPS:FHP:1,2019-08-01T02:54:00,28.1530,-82.8010,10.0,0.82,354.27,1.37,'11111222,11111222,11111222' 
COMPS,ioos:station:USF.COMPS:FHP:1,2019-08-01T03:54:00,28.1530,-82.8010,10.0,2.29,109.62,2.93,'11111222,11111222,11111222' 
COMPS,ioos:station:USF.COMPS:FHP:1,2019-08-01T04:54:00,28.1530,-82.8010,10.0,1.3,25.66,1.66,'11111222,11111222,11111222' 
COMPS,ioos:station:USF.COMPS:FHP:1,2019-08-01T05:54:00,28.1530,-82.8010,10.0,0.18,44.48,0.78,'11111222,11111222,11111222' 
COMPS,ioos:station:USF.COMPS:FHP:1,2019-08-01T06:54:00,28.1530,-82.8010,10.0,3.28,65.09,4.01,'11111222,11111222,11111222' 
COMPS,ioos:station:USF.COMPS:FHP:1,2019-08-01T07:54:00,28.1530,-82.8010,10.0,2.97,42.51,3.62,'11111222,11111222,11111222' 
COMPS,ioos:station:USF.COMPS:FHP:1,2019-08-01T08:54:00,28.1530,-82.8010,10.0,3.05,74.13,4.01,'11111222,11111222,11111222' 
COMPS,ioos:station:USF.COMPS:FHP:1,2019-08-01T09:54:00,28.1530,-82.8010,10.0,3.72,88.03,4.5,'11111222,11111222,11111222' 
COMPS,ioos:station:USF.COMPS:FHP:1,2019-08-01T10:54:00,28.1530,-82.8010,10.0,3.45,80.3,4.41,'11111222,11111222,11111222' 
COMPS,ioos:station:USF.COMPS:FHP:1,2019-08-01T11:54:00,28.1530,-82.8010,10.0,2.03,96.07,2.45,'11111222,11111222,11111222' 
COMPS,ioos:station:USF.COMPS:FHP:1,2019-08-01T12:54:00,28.1530,-82.8010,10.0,3.67,109.8,4.8,'11111222,11111222,11111222' 
COMPS,ioos:station:USF.COMPS:FHP:1,2019-08-01T13:54:00,28.1530,-82.8010,10.0,2.51,130.9,3.33,'11111222,11111222,11111222' 
COMPS,ioos:station:USF.COMPS:FHP:1,2019-08-01T14:54:00,28.1530,-82.8010,10.0,1.55,150.68,2.25,'11111222,11111222,11111222' 
COMPS,ioos:station:USF.COMPS:FHP:1,2019-08-01T15:54:00,28.1530,-82.8010,10.0,1.61,320.41,2.54,'11111222,11111222,11111222' 
COMPS,ioos:station:USF.COMPS:FHP:1,2019-08-01T16:54:00,28.1530,-82.8010,10.0,4.36,352.44,5.19,'11111222,11111222,11111222' 
COMPS,ioos:station:USF.COMPS:FHP:1,2019-08-01T17:54:00,28.1530,-82.8010,10.0,4.75,338.17,5.68,'11111222,11111222,11111222' 
COMPS,ioos:station:USF.COMPS:FHP:1,2019-08-01T18:54:00,28.1530,-82.8010,10.0,4.58,332.15,5.68,'11111222,11111222,11111222' 
COMPS,ioos:station:USF.COMPS:FHP:1,2019-08-01T19:54:00,28.1530,-82.8010,10.0,5.45,358.44,6.37,'11111222,11111222,11111222' 
COMPS,ioos:station:USF.COMPS:FHP:1,2019-08-01T20:54:00,28.1530,-82.8010,10.0,6.8,82.16,8.33,'11111222,11111222,11111222' 
COMPS,ioos:station:USF.COMPS:FHP:1,2019-08-01T21:54:00,28.1530,-82.8010,10.0,5.65,95.83,6.56,'11111222,11111222,11111222' 
COMPS,ioos:station:USF.COMPS:FHP:1,2019-08-01T22:54:00,28.1530,-82.8010,10.0,4.75,88.81,6.46,'11111222,11111222,11111222' 
COMPS,ioos:station:USF.COMPS:FHP:1,2019-08-01T23:54:00,28.1530,-82.8010,10.0,4.87,54.66,6.46,'11111222,11111222,11111222' 
COMPS,ioos:station:USF.COMPS:FHP:1,2019-08-02T00:54:00,28.1530,-82.8010,10.0,2.55,54.74,3.23,'11111222,11111222,11111222' 
COMPS,ioos:station:USF.COMPS:FHP:1,2019-08-02T01:54:00,28.1530,-82.8010,10.0,4.06,51.82,5.19,'11111222,11111222,11111222' 
COMPS,ioos:station:USF.COMPS:FHP:1,2019-08-02T02:54:00,28.1530,-82.8010,10.0,4.57,95.33,6.17,'11111222,11111222,11111222' 
COMPS,ioos:station:USF.COMPS:FHP:1,2019-08-02T03:54:00,28.1530,-82.8010,10.0,4.6,118.25,6.85,'11111222,11111222,11111222' 
COMPS,ioos:station:USF.COMPS:FHP:1,2019-08-02T04:54:00,28.1530,-82.8010,10.0,3.82,125.04,4.99,'11111222,11111222,11111222' 
COMPS,ioos:station:USF.COMPS:FHP:1,2019-08-02T05:54:00,28.1530,-82.8010,10.0,2.7,103.54,3.52,'11111222,11111222,11111222' 
COMPS,ioos:station:USF.COMPS:FHP:1,2019-08-02T06:54:00,28.1530,-82.8010,10.0,2.44,121.52,3.62,'11111222,11111222,11111222' 
COMPS,ioos:station:USF.COMPS:FHP:1,2019-08-02T07:54:00,28.1530,-82.8010,10.0,1.73,70.42,2.25,'11111222,11111222,11111222' 
COMPS,ioos:station:USF.COMPS:FHP:1,2019-08-02T08:54:00,28.1530,-82.8010,10.0,2.3,34.51,2.74,'11111222,11111222,11111222' 
COMPS,ioos:station:USF.COMPS:FHP:1,2019-08-02T09:54:00,28.1530,-82.8010,10.0,3.21,63.62,4.01,'11111222,11111222,11111222' 
COMPS,ioos:station:USF.COMPS:FHP:1,2019-08-02T10:54:00,28.1530,-82.8010,10.0,2.22,58.65,2.74,'11111222,11111222,11111222' 
COMPS,ioos:station:USF.COMPS:FHP:1,2019-08-02T11:54:00,28.1530,-82.8010,10.0,1.87,32.52,2.45,'11111222,11111222,11111222' 
COMPS,ioos:station:USF.COMPS:FHP:1,2019-08-02T12:54:00,28.1530,-82.8010,10.0,2.19,63.57,2.93,'11111222,11111222,11111222' 
COMPS,ioos:station:USF.COMPS:FHP:1,2019-08-02T13:54:00,28.1530,-82.8010,10.0,3.53,86.19,5.09,'11111222,11111222,11111222' 
COMPS,ioos:station:USF.COMPS:FHP:1,2019-08-02T14:54:00,28.1530,-82.8010,10.0,2.57,99.28,3.23,'11111222,11111222,11111222' 
COMPS,ioos:station:USF.COMPS:FHP:1,2019-08-02T15:54:00,28.1530,-82.8010,10.0,1.32,119.06,2.54,'11111222,11111222,11111222' 
COMPS,ioos:station:USF.COMPS:FHP:1,2019-08-02T16:54:00,28.1530,-82.8010,10.0,1.98,293.76,2.74,'11111222,11111222,11111222' 
COMPS,ioos:station:USF.COMPS:FHP:1,2019-08-02T17:54:00,28.1530,-82.8010,10.0,2.13,347.04,3.03,'11111222,11111222,11111222' 
COMPS,ioos:station:USF.COMPS:FHP:1,2019-08-02T18:54:00,28.1530,-82.8010,10.0,4.06,356.18,4.8,'11111222,11111222,11111222' 
COMPS,ioos:station:USF.COMPS:FHP:1,2019-08-02T19:54:00,28.1530,-82.8010,10.0,5.73,340.43,6.66,'11111222,11111222,11111222' 
COMPS,ioos:station:USF.COMPS:FHP:1,2019-08-02T20:54:00,28.1530,-82.8010,10.0,5.56,148.63,6.85,'11111222,11111222,11111222' 
COMPS,ioos:station:USF.COMPS:FHP:1,2019-08-02T21:54:00,28.1530,-82.8010,10.0,3.69,78.24,4.6,'11111222,11111222,11111222' 
COMPS,ioos:station:USF.COMPS:FHP:1,2019-08-02T22:54:00,28.1530,-82.8010,10.0,4.99,81.65,5.97,'11111222,11111222,11111222' 
COMPS,ioos:station:USF.COMPS:FHP:1,2019-08-02T23:54:00,28.1530,-82.8010,10.0,5.28,89.88,6.37,'11111222,11111222,11111222' 
COMPS,ioos:station:USF.COMPS:FHP:1,2019-08-03T00:54:00,28.1530,-82.8010,10.0,6.24,109.29,6.85,'11111222,11111222,11111222' 
COMPS,ioos:station:USF.COMPS:FHP:1,2019-08-03T01:54:00,28.1530,-82.8010,10.0,4.56,113.61,6.27,'11111222,11111222,11111222' 
COMPS,ioos:station:USF.COMPS:FHP:1,2019-08-03T02:54:00,28.1530,-82.8010,10.0,3.99,118.14,4.9,'11111222,11111222,11111222' 
COMPS,ioos:station:USF.COMPS:FHP:1,2019-08-03T03:54:00,28.1530,-82.8010,10.0,3.26,124.02,3.91,'11111222,11111222,11111222' 
COMPS,ioos:station:USF.COMPS:FHP:1,2019-08-03T04:54:00,28.1530,-82.8010,10.0,2.62,119.36,3.52,'11111222,11111222,11111222' 
COMPS,ioos:station:USF.COMPS:FHP:1,2019-08-03T05:54:00,28.1530,-82.8010,10.0,2.42,111.38,3.23,'11111222,11111222,11111222' 
COMPS,ioos:station:USF.COMPS:FHP:1,2019-08-03T06:54:00,28.1530,-82.8010,10.0,2.67,115.23,3.33,'11111222,11111222,11111222' 
COMPS,ioos:station:USF.COMPS:FHP:1,2019-08-03T07:54:00,28.1530,-82.8010,10.0,1.79,122.68,2.45,'11111222,11111222,11111222' 
COMPS,ioos:station:USF.COMPS:FHP:1,2019-08-03T08:54:00,28.1530,-82.8010,10.0,1.27,77.79,1.66,'11111222,11111222,11111222' 
COMPS,ioos:station:USF.COMPS:FHP:1,2019-08-03T09:54:00,28.1530,-82.8010,10.0,2.5,56.7,3.13,'11111222,11111222,11111222' 
COMPS,ioos:station:USF.COMPS:FHP:1,2019-08-03T10:54:00,28.1530,-82.8010,10.0,2.24,79.38,2.84,'11111222,11111222,11111222' 
COMPS,ioos:station:USF.COMPS:FHP:1,2019-08-03T11:54:00,28.1530,-82.8010,10.0,2.54,98.79,3.72,'11111222,11111222,11111222' 
COMPS,ioos:station:USF.COMPS:FHP:1,2019-08-03T12:54:00,28.1530,-82.8010,10.0,3.13,90.36,4.01,'11111222,11111222,11111222' 
COMPS,ioos:station:USF.COMPS:FHP:1,2019-08-03T13:54:00,28.1530,-82.8010,10.0,2.27,142.32,2.93,'11111222,11111222,11111222' 
COMPS,ioos:station:USF.COMPS:FHP:1,2019-08-03T14:54:00,28.1530,-82.8010,10.0,1.13,179.05,2.15,'11111222,11111222,11111222' 
COMPS,ioos:station:USF.COMPS:FHP:1,2019-08-03T15:54:00,28.1530,-82.8010,10.0,1.12,186.87,1.76,'11111222,11111222,11111222' 
COMPS,ioos:station:USF.COMPS:FHP:1,2019-08-03T16:54:00,28.1530,-82.8010,10.0,1.51,238.79,2.05,'11111222,11111222,11111222' 
COMPS,ioos:station:USF.COMPS:FHP:1,2019-08-03T17:54:00,28.1530,-82.8010,10.0,2.08,325.42,2.64,'11111222,11111222,11111222' 
COMPS,ioos:station:USF.COMPS:FHP:1,2019-08-03T18:54:00,28.1530,-82.8010,10.0,3.53,349.96,4.21,'11111222,11111222,11111222' 
COMPS,ioos:station:USF.COMPS:FHP:1,2019-08-03T19:54:00,28.1530,-82.8010,10.0,3.92,350.51,4.8,'11111222,11111222,11111222' 
COMPS,ioos:station:USF.COMPS:FHP:1,2019-08-03T20:54:00,28.1530,-82.8010,10.0,3.84,354.47,4.8,'11111222,11111222,11111222' 
COMPS,ioos:station:USF.COMPS:FHP:1,2019-08-03T21:54:00,28.1530,-82.8010,10.0,3.53,357.04,4.41,'11111222,11111222,11111222' 
COMPS,ioos:station:USF.COMPS:FHP:1,2019-08-03T22:54:00,28.1530,-82.8010,10.0,3.35,338.1,4.6,'11111222,11111222,11111222' 
COMPS,ioos:station:USF.COMPS:FHP:1,2019-08-03T23:54:00,28.1530,-82.8010,10.0,1.42,340.85,2.05,'11111222,11111222,11111222' 
COMPS,ioos:station:USF.COMPS:FHP:1,2019-08-04T00:54:00,28.1530,-82.8010,10.0,1.42,295.91,1.76,'11111222,11111222,11111222' 
COMPS,ioos:station:USF.COMPS:FHP:1,2019-08-04T01:54:00,28.1530,-82.8010,10.0,1.22,293.24,1.76,'11111222,11111222,11111222' 
COMPS,ioos:station:USF.COMPS:FHP:1,2019-08-04T02:54:00,28.1530,-82.8010,10.0,1.36,299.25,1.86,'11111222,11111222,11111222' 
COMPS,ioos:station:USF.COMPS:FHP:1,2019-08-04T03:54:00,28.1530,-82.8010,10.0,1.26,298.67,2.05,'11111222,11111222,11111222' 
COMPS,ioos:station:USF.COMPS:FHP:1,2019-08-04T04:54:00,28.1530,-82.8010,10.0,0.84,285.69,1.27,'11111222,11111222,11111222' 
COMPS,ioos:station:USF.COMPS:FHP:1,2019-08-04T05:54:00,28.1530,-82.8010,10.0,1.64,163.76,2.15,'11111222,11111222,11111222' 
COMPS,ioos:station:USF.COMPS:FHP:1,2019-08-04T06:54:00,28.1530,-82.8010,10.0,1.64,233.89,2.15,'11111222,11111222,11111222' 
COMPS,ioos:station:USF.COMPS:FHP:1,2019-08-04T07:54:00,28.1530,-82.8010,10.0,1.51,217.66,2.15,'11111222,11111222,11111222' 
COMPS,ioos:station:USF.COMPS:FHP:1,2019-08-04T08:54:00,28.1530,-82.8010,10.0,2.37,239.81,3.03,'11111222,11111222,11111222' 
COMPS,ioos:station:USF.COMPS:FHP:1,2019-08-04T09:54:00,28.1530,-82.8010,10.0,2.39,277.03,3.42,'11111222,11111222,11111222' 
COMPS,ioos:station:USF.COMPS:FHP:1,2019-08-04T10:54:00,28.1530,-82.8010,10.0,2.33,290.24,3.23,'11111222,11111222,11111222' 
COMPS,ioos:station:USF.COMPS:FHP:1,2019-08-04T11:54:00,28.1530,-82.8010,10.0,1.15,271.63,1.95,'11111222,11111222,11111222' 
COMPS,ioos:station:USF.COMPS:FHP:1,2019-08-04T12:54:00,28.1530,-82.8010,10.0,1.9,267.57,2.54,'11111222,11111222,11111222' 
COMPS,ioos:station:USF.COMPS:FHP:1,2019-08-04T13:54:00,28.1530,-82.8010,10.0,1.52,257.01,2.15,'11111222,11111222,11111222' 
COMPS,ioos:station:USF.COMPS:FHP:1,2019-08-04T14:54:00,28.1530,-82.8010,10.0,1.26,253.22,1.76,'11111222,11111222,11111222' 
COMPS,ioos:station:USF.COMPS:FHP:1,2019-08-04T15:54:00,28.1530,-82.8010,10.0,2.5,271.25,3.13,'11111222,11111222,11111222' 
COMPS,ioos:station:USF.COMPS:FHP:1,2019-08-04T16:54:00,28.1530,-82.8010,10.0,2.32,275.48,2.84,'11111222,11111222,11111222' 
COMPS,ioos:station:USF.COMPS:FHP:1,2019-08-04T17:54:00,28.1530,-82.8010,10.0,2.49,270.11,3.13,'11111222,11111222,11111222' 
COMPS,ioos:station:USF.COMPS:FHP:1,2019-08-04T18:54:00,28.1530,-82.8010,10.0,2.61,292.27,3.62,'11111222,11111222,11111222' 
COMPS,ioos:station:USF.COMPS:FHP:1,2019-08-04T19:54:00,28.1530,-82.8010,10.0,2.91,308.16,3.72,'11111222,11111222,11111222' 
COMPS,ioos:station:USF.COMPS:FHP:1,2019-08-04T20:54:00,28.1530,-82.8010,10.0,2.58,294.82,3.42,'11111222,11111222,11111222' 
COMPS,ioos:station:USF.COMPS:FHP:1,2019-08-04T21:54:00,28.1530,-82.8010,10.0,2.39,318.37,2.93,'11111222,11111222,11111222' 
COMPS,ioos:station:USF.COMPS:FHP:1,2019-08-04T22:54:00,28.1530,-82.8010,10.0,1.91,305.09,2.64,'11111222,11111222,11111222' 
COMPS,ioos:station:USF.COMPS:FHP:1,2019-08-04T23:54:00,28.1530,-82.8010,10.0,2.16,304.89,2.93,'11111222,11111222,11111222' 
COMPS,ioos:station:USF.COMPS:FHP:1,2019-08-05T00:54:00,28.1530,-82.8010,10.0,2.48,277.14,3.33,'11111222,11111222,11111222' 
COMPS,ioos:station:USF.COMPS:FHP:1,2019-08-05T01:54:00,28.1530,-82.8010,10.0,3.27,252.85,4.11,'11111222,11111222,11111222' 
COMPS,ioos:station:USF.COMPS:FHP:1,2019-08-05T02:54:00,28.1530,-82.8010,10.0,4.04,243.06,4.8,'11111222,11111222,11111222' 
COMPS,ioos:station:USF.COMPS:FHP:1,2019-08-05T03:54:00,28.1530,-82.8010,10.0,4.33,249.31,5.19,'11111222,11111222,11111222' 
COMPS,ioos:station:USF.COMPS:FHP:1,2019-08-05T04:54:00,28.1530,-82.8010,10.0,4.38,249.22,6.17,'11111222,11111222,11111222' 
COMPS,ioos:station:USF.COMPS:FHP:1,2019-08-05T05:54:00,28.1530,-82.8010,10.0,4.2,257.61,4.99,'11111222,11111222,11111222' 
COMPS,ioos:station:USF.COMPS:FHP:1,2019-08-05T06:54:00,28.1530,-82.8010,10.0,2.85,280.02,3.52,'11111222,11111222,11111222' 
COMPS,ioos:station:USF.COMPS:FHP:1,2019-08-05T07:54:00,28.1530,-82.8010,10.0,3.38,248.24,4.21,'11111222,11111222,11111222' 
COMPS,ioos:station:USF.COMPS:FHP:1,2019-08-05T08:54:00,28.1530,-82.8010,10.0,3.08,274.23,3.91,'11111222,11111222,11111222' 
COMPS,ioos:station:USF.COMPS:FHP:1,2019-08-05T09:54:00,28.1530,-82.8010,10.0,2.04,282.18,2.74,'11111222,11111222,11111222' 
COMPS,ioos:station:USF.COMPS:FHP:1,2019-08-05T10:54:00,28.1530,-82.8010,10.0,3.32,130.77,3.82,'11111222,11111222,11111222' 
COMPS,ioos:station:USF.COMPS:FHP:1,2019-08-05T11:54:00,28.1530,-82.8010,10.0,2.19,148.02,2.64,'11111222,11111222,11111222' 
COMPS,ioos:station:USF.COMPS:FHP:1,2019-08-05T12:54:00,28.1530,-82.8010,10.0,0.9,44.47,1.95,'11111222,11111222,11111222' 
COMPS,ioos:station:USF.COMPS:FHP:1,2019-08-05T13:54:00,28.1530,-82.8010,10.0,0.78,154.43,1.27,'11111222,11111222,11111222' 
COMPS,ioos:station:USF.COMPS:FHP:1,2019-08-05T14:54:00,28.1530,-82.8010,10.0,0.2,202.19,0.68,'11111222,11111222,11111222' 
COMPS,ioos:station:USF.COMPS:FHP:1,2019-08-05T15:54:00,28.1530,-82.8010,10.0,1.4,318.05,2.25,'11111222,11111222,11111222' 
COMPS,ioos:station:USF.COMPS:FHP:1,2019-08-05T16:54:00,28.1530,-82.8010,10.0,2.68,268.67,3.52,'11111222,11111222,11111222' 
COMPS,ioos:station:USF.COMPS:FHP:1,2019-08-05T17:54:00,28.1530,-82.8010,10.0,2.9,288.23,4.21,'11111222,11111222,11111222' 
COMPS,ioos:station:USF.COMPS:FHP:1,2019-08-05T18:54:00,28.1530,-82.8010,10.0,3.34,291.71,4.21,'11111222,11111222,11111222' 
COMPS,ioos:station:USF.COMPS:FHP:1,2019-08-05T19:54:00,28.1530,-82.8010,10.0,3.72,295.85,4.99,'11111222,11111222,11111222' 
COMPS,ioos:station:USF.COMPS:FHP:1,2019-08-05T20:54:00,28.1530,-82.8010,10.0,3.49,309.46,4.5,'11111222,11111222,11111222' 
COMPS,ioos:station:USF.COMPS:FHP:1,2019-08-05T21:54:00,28.1530,-82.8010,10.0,2.33,283.74,3.13,'11111222,11111222,11111222' 
COMPS,ioos:station:USF.COMPS:FHP:1,2019-08-05T22:54:00,28.1530,-82.8010,10.0,2.3,285.0,2.93,'11111222,11111222,11111222' 
COMPS,ioos:station:USF.COMPS:FHP:1,2019-08-05T23:54:00,28.1530,-82.8010,10.0,1.12,268.67,2.05,'11111222,11111222,11111222' 
COMPS,ioos:station:USF.COMPS:FHP:1,2019-08-06T00:54:00,28.1530,-82.8010,10.0,1.19,198.32,2.05,'11111222,11111222,11111222' 
COMPS,ioos:station:USF.COMPS:FHP:1,2019-08-06T01:54:00,28.1530,-82.8010,10.0,1.86,217.72,2.25,'11111222,11111222,11111222' 
COMPS,ioos:station:USF.COMPS:FHP:1,2019-08-06T02:54:00,28.1530,-82.8010,10.0,2.77,222.9,3.52,'11111222,11111222,11111222' 
COMPS,ioos:station:USF.COMPS:FHP:1,2019-08-06T03:54:00,28.1530,-82.8010,10.0,4.64,231.76,5.58,'11111222,11111222,11111222' 
COMPS,ioos:station:USF.COMPS:FHP:1,2019-08-06T04:54:00,28.1530,-82.8010,10.0,3.82,162.76,4.6,'11111222,11111222,11111222' 
COMPS,ioos:station:USF.COMPS:FHP:1,2019-08-06T05:54:00,28.1530,-82.8010,10.0,5.91,238.71,6.85,'11111222,11111222,11111222' 
COMPS,ioos:station:USF.COMPS:FHP:1,2019-08-06T06:54:00,28.1530,-82.8010,10.0,6.33,253.2,6.76,'11111222,11111222,11111222' 
COMPS,ioos:station:USF.COMPS:FHP:1,2019-08-06T07:54:00,28.1530,-82.8010,10.0,4.26,258.81,5.58,'11111222,11111222,11111222' 
COMPS,ioos:station:USF.COMPS:FHP:1,2019-08-06T08:54:00,28.1530,-82.8010,10.0,3.49,243.09,4.8,'11111222,11111222,11111222' 
COMPS,ioos:station:USF.COMPS:FHP:1,2019-08-06T09:54:00,28.1530,-82.8010,10.0,4.45,262.57,6.85,'11111222,11111222,11111222' 
COMPS,ioos:station:USF.COMPS:FHP:1,2019-08-06T10:54:00,28.1530,-82.8010,10.0,2.85,262.38,3.52,'11111222,11111222,11111222' 
COMPS,ioos:station:USF.COMPS:FHP:1,2019-08-06T11:54:00,28.1530,-82.8010,10.0,3.22,269.03,4.21,'11111222,11111222,11111222' 
COMPS,ioos:station:USF.COMPS:FHP:1,2019-08-06T12:54:00,28.1530,-82.8010,10.0,2.49,180.11,3.23,'11111222,11111222,11111222' 
COMPS,ioos:station:USF.COMPS:FHP:1,2019-08-06T13:54:00,28.1530,-82.8010,10.0,3.5,190.0,4.21,'11111222,11111222,11111222' 
COMPS,ioos:station:USF.COMPS:FHP:1,2019-08-06T14:54:00,28.1530,-82.8010,10.0,4.02,234.73,4.8,'11111222,11111222,11111222' 
COMPS,ioos:station:USF.COMPS:FHP:1,2019-08-06T15:54:00,28.1530,-82.8010,10.0,3.82,283.73,4.6,'11111222,11111222,11111222' 
COMPS,ioos:station:USF.COMPS:FHP:1,2019-08-06T16:54:00,28.1530,-82.8010,10.0,4.06,287.97,5.19,'11111222,11111222,11111222' 
COMPS,ioos:station:USF.COMPS:FHP:1,2019-08-06T17:54:00,28.1530,-82.8010,10.0,4.35,327.72,5.09,'11111222,11111222,11111222' 
COMPS,ioos:station:USF.COMPS:FHP:1,2019-08-06T18:54:00,28.1530,-82.8010,10.0,3.86,305.33,5.19,'11111222,11111222,11111222' 
COMPS,ioos:station:USF.COMPS:FHP:1,2019-08-06T19:54:00,28.1530,-82.8010,10.0,3.83,290.1,4.7,'11111222,11111222,11111222' 
COMPS,ioos:station:USF.COMPS:FHP:1,2019-08-06T20:54:00,28.1530,-82.8010,10.0,3.54,298.0,4.7,'11111222,11111222,11111222' 
COMPS,ioos:station:USF.COMPS:FHP:1,2019-08-06T21:54:00,28.1530,-82.8010,10.0,2.61,295.2,3.72,'11111222,11111222,11111222' 
COMPS,ioos:station:USF.COMPS:FHP:1,2019-08-06T22:54:00,28.1530,-82.8010,10.0,2.66,283.66,3.91,'11111222,11111222,11111222' 
COMPS,ioos:station:USF.COMPS:FHP:1,2019-08-06T23:54:00,28.1530,-82.8010,10.0,2.94,244.99,3.91,'11111222,11111222,11111222' 
COMPS,ioos:station:USF.COMPS:FHP:1,2019-08-07T00:54:00,28.1530,-82.8010,10.0,2.76,239.93,3.42,'11111222,11111222,11111222' 
COMPS,ioos:station:USF.COMPS:FHP:1,2019-08-07T01:54:00,28.1530,-82.8010,10.0,4.1,216.15,4.9,'11111222,11111222,11111222' 
COMPS,ioos:station:USF.COMPS:FHP:1,2019-08-07T02:54:00,28.1530,-82.8010,10.0,5.05,235.57,6.17,'11111222,11111222,11111222' 
COMPS,ioos:station:USF.COMPS:FHP:1,2019-08-07T03:54:00,28.1530,-82.8010,10.0,5.01,230.56,5.87,'11111222,11111222,11111222' 
COMPS,ioos:station:USF.COMPS:FHP:1,2019-08-07T04:54:00,28.1530,-82.8010,10.0,5.16,225.12,6.46,'11111222,11111222,11111222' 
COMPS,ioos:station:USF.COMPS:FHP:1,2019-08-07T05:54:00,28.1530,-82.8010,10.0,5.35,230.53,6.37,'11111222,11111222,11111222' 
COMPS,ioos:station:USF.COMPS:FHP:1,2019-08-07T06:54:00,28.1530,-82.8010,10.0,5.34,230.82,6.27,'11111222,11111222,11111222' 
COMPS,ioos:station:USF.COMPS:FHP:1,2019-08-07T07:54:00,28.1530,-82.8010,10.0,6.17,236.18,6.76,'11111222,11111222,11111222' 
COMPS,ioos:station:USF.COMPS:FHP:1,2019-08-07T08:54:00,28.1530,-82.8010,10.0,6.12,243.95,6.85,'11111222,11111222,11111222' 
COMPS,ioos:station:USF.COMPS:FHP:1,2019-08-07T09:54:00,28.1530,-82.8010,10.0,6.37,251.95,6.85,'11111222,11111222,11111222' 
COMPS,ioos:station:USF.COMPS:FHP:1,2019-08-07T10:54:00,28.1530,-82.8010,10.0,6.26,257.55,6.76,'11111222,11111222,11111222' 
COMPS,ioos:station:USF.COMPS:FHP:1,2019-08-07T11:54:00,28.1530,-82.8010,10.0,6.14,277.92,6.85,'11111222,11111222,11111222' 
COMPS,ioos:station:USF.COMPS:FHP:1,2019-08-07T12:54:00,28.1530,-82.8010,10.0,3.83,311.81,5.19,'11111222,11111222,11111222' 
COMPS,ioos:station:USF.COMPS:FHP:1,2019-08-07T13:54:00,28.1530,-82.8010,10.0,4.43,301.18,5.68,'11111222,11111222,11111222' 
COMPS,ioos:station:USF.COMPS:FHP:1,2019-08-07T14:54:00,28.1530,-82.8010,10.0,5.15,294.9,6.37,'11111222,11111222,11111222' 
COMPS,ioos:station:USF.COMPS:FHP:1,2019-08-07T15:54:00,28.1530,-82.8010,10.0,5.44,285.37,6.66,'11111222,11111222,11111222' 
COMPS,ioos:station:USF.COMPS:FHP:1,2019-08-07T16:54:00,28.1530,-82.8010,10.0,4.79,279.29,6.07,'11111222,11111222,11111222' 
COMPS,ioos:station:USF.COMPS:FHP:1,2019-08-07T17:54:00,28.1530,-82.8010,10.0,4.44,279.41,5.39,'11111222,11111222,11111222' 
COMPS,ioos:station:USF.COMPS:FHP:1,2019-08-07T18:54:00,28.1530,-82.8010,10.0,6.7,281.95,12.93,'11111222,11111222,11111222' 
COMPS,ioos:station:USF.COMPS:FHP:1,2019-08-07T19:54:00,28.1530,-82.8010,10.0,4.75,298.54,5.87,'11111222,11111222,11111222' 
COMPS,ioos:station:USF.COMPS:FHP:1,2019-08-07T20:54:00,28.1530,-82.8010,10.0,3.83,300.48,5.48,'11111222,11111222,11111222' 
COMPS,ioos:station:USF.COMPS:FHP:1,2019-08-07T21:54:00,28.1530,-82.8010,10.0,2.73,72.98,3.33,'11111222,11111222,11111222' 
COMPS,ioos:station:USF.COMPS:FHP:1,2019-08-07T22:54:00,28.1530,-82.8010,10.0,2.13,263.5,3.23,'11111222,11111222,11111222' 
COMPS,ioos:station:USF.COMPS:FHP:1,2019-08-07T23:54:00,28.1530,-82.8010,10.0,4.01,163.45,4.99,'11111222,11111222,11111222' 
COMPS,ioos:station:USF.COMPS:FHP:1,2019-08-08T00:54:00,28.1530,-82.8010,10.0,4.3,171.09,5.19,'11111222,11111222,11111222' 
COMPS,ioos:station:USF.COMPS:FHP:1,2019-08-08T01:54:00,28.1530,-82.8010,10.0,2.95,196.16,4.01,'11111222,11111222,11111222' 
COMPS,ioos:station:USF.COMPS:FHP:1,2019-08-08T02:54:00,28.1530,-82.8010,10.0,4.92,240.46,6.46,'11111222,11111222,11111222' 
COMPS,ioos:station:USF.COMPS:FHP:1,2019-08-08T05:54:00,28.1530,-82.8010,10.0,5.36,272.94,5.97,'11111222,11111222,11111222' 
COMPS,ioos:station:USF.COMPS:FHP:1,2019-08-08T06:54:00,28.1530,-82.8010,10.0,4.99,272.68,5.97,'11111222,11111222,11111222' 
COMPS,ioos:station:USF.COMPS:FHP:1,2019-08-08T07:54:00,28.1530,-82.8010,10.0,5.17,268.52,5.87,'11111222,11111222,11111222' 
COMPS,ioos:station:USF.COMPS:FHP:1,2019-08-08T08:54:00,28.1530,-82.8010,10.0,4.4,262.68,5.29,'11111222,11111222,11111222' 
COMPS,ioos:station:USF.COMPS:FHP:1,2019-08-08T09:54:00,28.1530,-82.8010,10.0,4.61,262.19,5.29,'11111222,11111222,11111222' 
COMPS,ioos:station:USF.COMPS:FHP:1,2019-08-08T10:54:00,28.1530,-82.8010,10.0,4.29,250.27,5.39,'11111222,11111222,11111222' 
COMPS,ioos:station:USF.COMPS:FHP:1,2019-08-08T11:54:00,28.1530,-82.8010,10.0,4.76,264.66,5.39,'11111222,11111222,11111222' 
COMPS,ioos:station:USF.COMPS:FHP:1,2019-08-08T12:54:00,28.1530,-82.8010,10.0,4.7,253.31,5.58,'11111222,11111222,11111222' 
COMPS,ioos:station:USF.COMPS:FHP:1,2019-08-08T13:54:00,28.1530,-82.8010,10.0,3.54,278.19,4.5,'11111222,11111222,11111222' 
COMPS,ioos:station:USF.COMPS:FHP:1,2019-08-08T14:54:00,28.1530,-82.8010,10.0,3.44,290.6,4.31,'11111222,11111222,11111222' 
COMPS,ioos:station:USF.COMPS:FHP:1,2019-08-08T15:54:00,28.1530,-82.8010,10.0,4.01,286.85,5.29,'11111222,11111222,11111222' 
COMPS,ioos:station:USF.COMPS:FHP:1,2019-08-08T16:54:00,28.1530,-82.8010,10.0,4.29,288.2,5.29,'11111222,11111222,11111222' 
COMPS,ioos:station:USF.COMPS:FHP:1,2019-08-08T17:54:00,28.1530,-82.8010,10.0,3.94,283.77,4.9,'11111222,11111222,11111222' 
COMPS,ioos:station:USF.COMPS:FHP:1,2019-08-08T18:54:00,28.1530,-82.8010,10.0,4.05,294.07,5.09,'11111222,11111222,11111222' 
COMPS,ioos:station:USF.COMPS:FHP:1,2019-08-08T19:54:00,28.1530,-82.8010,10.0,3.75,282.08,4.8,'11111222,11111222,11111222' 
COMPS,ioos:station:USF.COMPS:FHP:1,2019-08-08T20:54:00,28.1530,-82.8010,10.0,5.24,311.35,6.27,'11111222,11111222,11111222' 
COMPS,ioos:station:USF.COMPS:FHP:1,2019-08-08T21:54:00,28.1530,-82.8010,10.0,4.67,306.95,6.17,'11111222,11111222,11111222' 
COMPS,ioos:station:USF.COMPS:FHP:1,2019-08-08T22:54:00,28.1530,-82.8010,10.0,4.17,304.95,5.78,'11111222,11111222,11111222' 
COMPS,ioos:station:USF.COMPS:FHP:1,2019-08-08T23:54:00,28.1530,-82.8010,10.0,3.9,255.81,4.6,'11111222,11111222,11111222' 
COMPS,ioos:station:USF.COMPS:FHP:1,2019-08-09T00:54:00,28.1530,-82.8010,10.0,4.84,248.1,5.58,'11111222,11111222,11111222' 
COMPS,ioos:station:USF.COMPS:FHP:1,2019-08-09T01:54:00,28.1530,-82.8010,10.0,5.19,260.07,6.07,'11111222,11111222,11111222' 
COMPS,ioos:station:USF.COMPS:FHP:1,2019-08-09T02:54:00,28.1530,-82.8010,10.0,4.25,259.67,5.19,'11111222,11111222,11111222' 